Zanesville, OH

4:07 PM EDT on October 20, 2017 (GMT -0400)
Zanesville Municipal

Weather History for KZZV - June, 2013

Change the Weather History Date:

Thursday, June 6, 2013

  Actual Average Record
Temperature  
Mean Temperature 65 °F 67 °F  
Max Temperature 71 °F 78 °F 95 °F (1936)
Min Temperature 59 °F 56 °F 36 °F (1945)
Degree Days  
Heating Degree Days 0 2  
Month to date heating degree days 12 14  
Since 1 June heating degree days 12 14  
Since 1 July heating degree days 5563 5553  
Cooling Degree Days 0 4  
Month to date cooling degree days 19 20  
Year to date cooling degree days 127 74  
Since 1 June cooling degree days 19 20  
Growing Degree Days 16 (Base 50)    
Moisture  
Dew Point 64 °F    
Average Humidity 87    
Maximum Humidity 100    
Minimum Humidity 73    
Precipitation  
Precipitation 0.66 in 0.14 in 1.50 in (1953)
Month to date precipitation 0.70 0.81  
Year to date precipitation 11.29 16.27  
Sea Level Pressure  
Sea Level Pressure 29.82 in    
Wind  
Wind Speed 6 mph (SSE)    
Max Wind Speed 18 mph    
Max Gust Speed 24 mph    
Visibility 6 miles    
Events Rain    
T = Trace of Precipitation, MM = Missing Value Source: NWS Daily Summary

Daily Weather History Graph

Daily Weather History Graph

Search for Another Location

Airport or City:

Trip Planner

Search our weather history database for the weather conditions in past years. The results will help you decide how hot, cold, wet, or windy it might be!

Date:

Astronomy

Jun. 06, 2013 Rise Set
Actual Time 5:59 AM EDT 8:53 PM EDT
Civil Twilight 5:26 AM EDT 9:26 PM EDT
Nautical Twilight 4:45 AM EDT 10:07 PM EDT
Astronomical Twilight 3:58 AM EDT 10:54 PM EDT
Moon 4:39 AM EDT (6/6) 7:14 PM EDT (6/6)
Length of Visible Light 15h 59m
Length of Day
14h 54m
Waning Crescent, 4% of the Moon is Illuminated
Jun 6
Waning Crescent
Jun 8
New
Jun 16
First Quarter
Jun 23
Full
Jun 30
Last Quarter

Hourly Weather History & Observations

Time (EDT) Temp. Dew Point Humidity Pressure Visibility Wind Dir Wind Speed Gust Speed Precip Events Conditions
12:53 AM 71.1 °F 62.1 °F 73% 29.89 in 10.0 mi South 16.1 mph - N/A   Mostly Cloudy
1:19 AM 69.8 °F 64.4 °F 83% 29.91 in 10.0 mi South 11.5 mph - 0.01 in Rain Light Rain
1:53 AM 68.0 °F 64.0 °F 87% 29.89 in 10.0 mi South 9.2 mph - 0.01 in   Overcast
2:48 AM 66.2 °F 64.4 °F 94% 29.90 in 2.5 mi South 6.9 mph - 0.08 in Rain Heavy Rain
2:53 AM 66.9 °F 64.0 °F 90% 29.88 in 2.0 mi South 5.8 mph - 0.08 in Rain Light Rain
3:01 AM 66.2 °F 64.4 °F 94% 29.89 in 6.0 mi SSE 8.1 mph - 0.01 in Rain Light Rain
3:17 AM 66.2 °F 64.4 °F 94% 29.89 in 8.0 mi SSE 5.8 mph - 0.02 in Rain Light Rain
3:53 AM 66.0 °F 64.0 °F 93% 29.85 in 2.5 mi SSE 8.1 mph - 0.08 in Rain Heavy Rain
4:00 AM 64.4 °F 64.4 °F 100% 29.87 in 3.0 mi SSE 6.9 mph - 0.01 in Rain Light Rain
4:27 AM 64.4 °F 64.4 °F 100% 29.87 in 5.0 mi SSE 4.6 mph - 0.01 in Rain Light Rain
4:53 AM 64.9 °F 64.0 °F 97% 29.84 in 4.0 mi SSE 6.9 mph - 0.03 in Rain Light Rain
5:00 AM 64.4 °F 64.4 °F 100% 29.86 in 5.0 mi SSE 6.9 mph - 0.00 in Rain Light Rain
5:38 AM 64.4 °F 64.4 °F 100% 29.86 in 3.0 mi SSE 6.9 mph - 0.03 in Rain Rain
5:40 AM 64.4 °F 64.4 °F 100% 29.86 in 2.5 mi SSE 8.1 mph - 0.04 in Rain Rain
5:50 AM 64.4 °F 64.4 °F 100% 29.86 in 3.0 mi SSE 6.9 mph - 0.07 in Rain Rain
5:53 AM 64.9 °F 64.0 °F 97% 29.84 in 4.0 mi SSE 8.1 mph - 0.08 in Rain Rain
6:53 AM 64.9 °F 64.0 °F 97% 29.84 in 4.0 mi SSE 8.1 mph - 0.06 in Rain Light Rain
7:24 AM 64.4 °F 64.4 °F 100% 29.85 in 6.0 mi South 6.9 mph - 0.00 in   Overcast
7:53 AM 66.0 °F 64.0 °F 93% 29.83 in 6.0 mi South 9.2 mph - 0.00 in   Overcast
8:02 AM 66.2 °F 64.4 °F 94% 29.84 in 6.0 mi South 6.9 mph - N/A   Overcast
8:38 AM 66.2 °F 64.4 °F 94% 29.84 in 6.0 mi SSW 6.9 mph - N/A   Overcast
8:53 AM 66.0 °F 64.0 °F 93% 29.82 in 5.0 mi South 5.8 mph - N/A   Overcast
9:39 AM 66.2 °F 64.4 °F 94% 29.83 in 6.0 mi SSE 6.9 mph - N/A   Overcast
9:53 AM 66.9 °F 64.0 °F 90% 29.82 in 7.0 mi South 6.9 mph - N/A   Overcast
10:53 AM 68.0 °F 64.0 °F 87% 29.81 in 7.0 mi South 8.1 mph - N/A   Overcast
11:53 AM 69.1 °F 64.0 °F 84% 29.81 in 9.0 mi South 5.8 mph - N/A   Overcast
12:53 PM 70.0 °F 64.9 °F 84% 29.80 in 8.0 mi SSW 4.6 mph - N/A   Mostly Cloudy
1:35 PM 69.8 °F 64.4 °F 83% 29.81 in 6.0 mi SSW 4.6 mph - 0.00 in Rain Light Rain
1:53 PM 69.1 °F 64.9 °F 87% 29.80 in 3.0 mi SW 3.5 mph - 0.02 in Rain Light Rain
2:18 PM 69.8 °F 66.2 °F 88% 29.80 in 2.0 mi WNW 3.5 mph - 0.04 in Rain Rain
2:42 PM 69.8 °F 66.2 °F 88% 29.80 in 3.0 mi West 3.5 mph - 0.07 in Rain Light Rain
2:53 PM 69.1 °F 66.9 °F 93% 29.79 in 1.5 mi West 10.4 mph - 0.12 in Rain Rain
2:56 PM 68.0 °F 66.2 °F 94% 29.80 in 0.8 mi NW 8.1 mph - 0.07 in Rain Heavy Rain
3:04 PM 66.2 °F 64.4 °F 94% 29.80 in 1.0 mi West 5.8 mph - 0.12 in Rain Rain
3:16 PM 66.2 °F 64.4 °F 94% 29.80 in 2.0 mi Calm Calm - 0.14 in Rain Light Rain
3:31 PM 66.2 °F 64.4 °F 94% 29.78 in 4.0 mi North 5.8 mph - 0.15 in Rain Light Rain
3:53 PM 66.9 °F 64.9 °F 93% 29.77 in 3.0 mi North 4.6 mph - 0.17 in Rain Light Rain
4:12 PM 68.0 °F 66.2 °F 94% 29.79 in 6.0 mi NNE 3.5 mph - 0.00 in Rain Light Rain
4:41 PM 68.0 °F 64.4 °F 88% 29.79 in 7.0 mi ENE 4.6 mph - 0.01 in Rain Light Rain
4:53 PM 68.0 °F 64.9 °F 90% 29.77 in 7.0 mi ENE 3.5 mph - 0.01 in Rain Light Rain
5:00 PM 68.0 °F 64.4 °F 88% 29.78 in 7.0 mi NE 3.5 mph - 0.00 in   Overcast
5:41 PM 69.8 °F 64.4 °F 83% 29.78 in 6.0 mi North 4.6 mph - 0.00 in   Overcast
5:53 PM 69.1 °F 66.0 °F 90% 29.76 in 6.0 mi ENE 4.6 mph - 0.00 in   Mostly Cloudy
6:02 PM 69.8 °F 64.4 °F 83% 29.78 in 6.0 mi North 4.6 mph - N/A   Mostly Cloudy
6:14 PM 69.8 °F 64.4 °F 83% 29.79 in 6.0 mi North 3.5 mph - N/A   Mostly Cloudy
6:24 PM 69.8 °F 66.2 °F 88% 29.78 in 5.0 mi Calm Calm - N/A   Overcast
6:29 PM 69.8 °F 64.4 °F 83% 29.78 in 5.0 mi Calm Calm - N/A   Mostly Cloudy
6:37 PM 69.8 °F 64.4 °F 83% 29.78 in 5.0 mi North 5.8 mph - N/A   Mostly Cloudy
6:53 PM 69.1 °F 64.9 °F 87% 29.77 in 5.0 mi NNE 3.5 mph - N/A   Scattered Clouds
7:22 PM 68.0 °F 64.4 °F 88% 29.80 in 6.0 mi North 3.5 mph - N/A   Overcast
7:33 PM 68.0 °F 64.4 °F 88% 29.80 in 9.0 mi North 5.8 mph - N/A   Overcast
7:45 PM 66.2 °F 62.6 °F 88% 29.79 in 10.0 mi North 5.8 mph - N/A   Overcast
7:53 PM 66.9 °F 63.0 °F 87% 29.78 in 10.0 mi North 4.6 mph - N/A   Overcast
8:53 PM 66.0 °F 62.1 °F 87% 29.79 in 10.0 mi NNW 8.1 mph - N/A   Overcast
9:14 PM 64.4 °F 60.8 °F 88% 29.81 in 10.0 mi North 8.1 mph - N/A   Mostly Cloudy
9:26 PM 64.4 °F 60.8 °F 88% 29.81 in 10.0 mi Variable 4.6 mph - N/A   Overcast
9:53 PM 64.0 °F 60.1 °F 87% 29.81 in 7.0 mi North 8.1 mph - N/A   Overcast
10:53 PM 62.1 °F 60.1 °F 93% 29.82 in 5.0 mi North 4.6 mph - N/A   Overcast
11:28 PM 60.8 °F 59.0 °F 94% 29.83 in 3.0 mi North 6.9 mph - N/A   Overcast
11:53 PM 60.1 °F 57.9 °F 93% 29.82 in 3.0 mi North 5.8 mph - N/A   Overcast